| time (UTC) | temp F | wind direction | speed knots | gust knots | rain 1hr in | rain 24hr in | rain mn in | humidity % | barometer mb |
| 20260905120002 | 62 | 259 | 0.9 | 1.7 | 0.00 | 0.01 | 0.00 | 87 | 1010.6 |
| 20260905114600 | 62 | 267 | 0.9 | 1.7 | 0.00 | 0.01 | 0.00 | 87 | 1010.5 |
| 20260905113100 | 62 | 266 | 0.9 | 1.7 | 0.00 | 0.01 | 0.00 | 87 | 1010.4 |
| 20260905111557 | 61 | 231 | 0.9 | 2.6 | 0.00 | 0.01 | 0.00 | 87 | 1010.3 |
| 20260905110059 | 61 | 263 | 0.9 | 2.6 | 0.00 | 0.01 | 0.00 | 88 | 1010.1 |
| 20260905104557 | 62 | 232 | 0.9 | 1.7 | 0.00 | 0.01 | 0.00 | 87 | 1010.1 |
| 20260905103055 | 61 | 257 | 0.0 | 1.7 | 0.00 | 0.01 | 0.00 | 89 | 1009.9 |
| 20260905101552 | 62 | 281 | 0.9 | 2.6 | 0.00 | 0.01 | 0.00 | 87 | 1009.7 |
| 20260905100152 | 62 | 176 | 0.0 | 3.5 | 0.00 | 0.01 | 0.00 | 87 | 1009.6 |
| 20260905094549 | 61 | 268 | 0.9 | 2.6 | 0.00 | 0.01 | 0.00 | 87 | 1009.5 |
| 20260905093048 | 61 | 259 | 0.0 | 6.1 | 0.00 | 0.01 | 0.00 | 89 | 1009.4 |
| 20260905091550 | 61 | 175 | 0.0 | 2.6 | 0.00 | 0.01 | 0.00 | 90 | 1009.2 |
| 20260905090104 | 61 | 240 | 0.9 | 2.6 | 0.00 | 0.01 | 0.00 | 89 | 1009.1 |
| 20260905084544 | 61 | 235 | 0.9 | 3.5 | 0.00 | 0.01 | 0.00 | 89 | 1009.1 |
| 20260905083049 | 61 | 280 | 1.7 | 3.5 | 0.00 | 0.01 | 0.00 | 91 | 1009.0 |
| 20260905081552 | 59 | 195 | 0.0 | 1.7 | 0.00 | 0.01 | 0.00 | 94 | 1009.0 |
| 20260905080047 | 58 | 186 | 0.0 | 0.9 | 0.00 | 0.01 | 0.00 | 93 | 1008.9 |
| 20260905074540 | 59 | 157 | 0.0 | 0.0 | 0.00 | 0.01 | 0.00 | 93 | 1008.9 |
| 20260905073039 | 59 | 157 | 0.0 | 0.0 | 0.00 | 0.01 | 0.00 | 93 | 1008.8 |
| 20260905071539 | 60 | 188 | 0.0 | 0.0 | 0.00 | 0.01 | 0.00 | 92 | 1008.8 |
| 20260905070038 | 60 | 196 | 0.0 | 0.0 | 0.00 | 0.01 | 0.00 | 92 | 1008.7 |
| 20260905064535 | 59 | 134 | 0.0 | 0.0 | 0.00 | 0.01 | 0.00 | 92 | 1008.8 |
| 20260905063033 | 60 | 134 | 0.0 | 0.0 | 0.00 | 0.01 | 0.00 | 91 | 1008.8 |
| 20260905061530 | 61 | 134 | 0.0 | 0.0 | 0.00 | 0.01 | 0.00 | 91 | 1008.8 |
| 20260905060041 | 61 | 188 | 0.0 | 0.0 | 0.00 | 0.01 | 0.00 | 90 | 1008.9 |
| 20260905054535 | 62 | 188 | 0.0 | 0.9 | 0.00 | 0.01 | 0.00 | 89 | 1009.0 |
| 20260905053023 | 63 | 103 | 0.9 | 2.6 | 0.00 | 0.01 | 0.00 | 88 | 1009.0 |
| 20260905051528 | 63 | 269 | 0.9 | 2.6 | 0.00 | 0.01 | 0.00 | 88 | 1009.0 |
| 20260905050020 | 63 | 205 | 0.9 | 2.6 | 0.00 | 0.01 | 0.00 | 86 | 1009.0 |
| 20260905044519 | 63 | 105 | 0.9 | 4.3 | 0.00 | 0.01 | 0.00 | 86 | 1009.0 |
| 20260905043017 | 63 | 235 | 1.7 | 5.2 | 0.00 | 0.01 | 0.00 | 87 | 1008.9 |
| 20260905041516 | 63 | 32 | 1.7 | 4.3 | 0.00 | 0.01 | 0.00 | 86 | 1009.0 |
| 20260905040015 | 63 | 71 | 0.9 | 5.2 | 0.00 | 0.01 | 0.00 | 86 | 1009.0 |
| 20260905034516 | 63 | 39 | 0.9 | 5.2 | 0.00 | 0.01 | 0.01 | 87 | 1008.8 |
| 20260905033013 | 63 | 114 | 0.0 | 1.7 | 0.00 | 0.01 | 0.01 | 90 | 1009.2 |
| 20260905031512 | 62 | 222 | 0.0 | 0.0 | 0.00 | 0.01 | 0.01 | 89 | 1009.2 |
| 20260905030014 | 62 | 210 | 0.0 | 0.9 | 0.00 | 0.01 | 0.01 | 89 | 1009.2 |
| 20260905024512 | 62 | 195 | 0.0 | 0.0 | 0.00 | 0.01 | 0.01 | 88 | 1009.3 |
| 20260905023014 | 63 | 181 | 0.0 | 0.0 | 0.00 | 0.01 | 0.01 | 89 | 1009.3 |
| 20260905021511 | 64 | 177 | 0.0 | 0.0 | 0.00 | 0.01 | 0.01 | 88 | 1009.6 |
| 20260905020012 | 64 | 170 | 0.0 | 2.6 | 0.00 | 0.01 | 0.01 | 87 | 1009.3 |
| 20260905014510 | 65 | 176 | 0.0 | 2.6 | 0.00 | 0.01 | 0.01 | 86 | 1009.3 |
| 20260905013011 | 65 | 240 | 0.0 | 2.6 | 0.00 | 0.01 | 0.01 | 88 | 1009.4 |
| 20260905011514 | 64 | 158 | 0.0 | 3.5 | 0.00 | 0.01 | 0.01 | 90 | 1009.4 |
| 20260905010009 | 64 | 175 | 0.0 | 0.9 | 0.00 | 0.01 | 0.01 | 89 | 1009.5 |
| 20260905004513 | 63 | 226 | 0.0 | 0.9 | 0.00 | 0.01 | 0.01 | 92 | 1009.6 |
| 20260905003013 | 63 | 147 | 0.0 | 0.0 | 0.00 | 0.01 | 0.01 | 91 | 1009.5 |
| 20260905001510 | 63 | 146 | 0.0 | 0.0 | 0.00 | 0.01 | 0.01 | 90 | 1009.5 |
| 20260905000007 | 63 | 147 | 0.0 | 0.0 | 0.00 | 0.01 | 0.01 | 90 | 1009.5 |
| 20260904234505 | 64 | 146 | 0.0 | 0.0 | 0.00 | 0.28 | 0.01 | 90 | 1009.0 |
| 20260904233005 | 64 | 146 | 0.0 | 0.0 | 0.00 | 0.28 | 0.01 | 89 | 1009.1 |
| 20260904231510 | 65 | 150 | 0.0 | 0.0 | 0.00 | 0.28 | 0.01 | 89 | 1009.2 |
| 20260904230014 | 65 | 167 | 0.0 | 0.0 | 0.00 | 0.28 | 0.01 | 87 | 1009.3 |
| 20260904224502 | 67 | 167 | 0.0 | 0.0 | 0.00 | 0.28 | 0.01 | 85 | 1009.2 |
| 20260904223001 | 69 | 356 | 0.0 | 3.5 | 0.00 | 0.28 | 0.01 | 77 | 1008.9 |
| 20260904221502 | 68 | 274 | 0.9 | 4.3 | 0.00 | 0.28 | 0.01 | 81 | 1008.8 |
| 20260904220002 | 67 | 176 | 0.0 | 1.7 | 0.00 | 0.28 | 0.01 | 81 | 1008.8 |
| 20260904214500 | 68 | 191 | 0.0 | 0.0 | 0.00 | 0.28 | 0.01 | 82 | 1008.8 |
| 20260904213101 | 70 | 178 | 0.0 | 3.5 | 0.00 | 0.28 | 0.01 | 81 | 1008.6 |
| 20260904211604 | 71 | 356 | 1.7 | 7.0 | 0.00 | 0.28 | 0.01 | 75 | 1008.8 |
| 20260904210159 | 71 | 287 | 0.9 | 6.1 | 0.00 | 0.28 | 0.01 | 77 | 1008.7 |
| 20260904204558 | 70 | 189 | 0.0 | 0.9 | 0.00 | 0.28 | 0.01 | 83 | 1008.6 |
| 20260904203058 | 70 | 183 | 0.0 | 0.0 | 0.00 | 0.28 | 0.01 | 82 | 1008.8 |
| 20260904201558 | 71 | 188 | 0.0 | 2.6 | 0.00 | 0.28 | 0.01 | 79 | 1008.8 |
| 20260904194556 | 72 | 262 | 1.7 | 6.1 | 0.00 | 0.28 | 0.01 | 74 | 1008.8 |
| 20260904193056 | 73 | 39 | 1.7 | 7.0 | 0.00 | 0.28 | 0.01 | 71 | 1009.0 |
| 20260904191552 | 73 | 243 | 1.7 | 5.2 | 0.00 | 0.28 | 0.01 | 75 | 1008.8 |
| 20260904190052 | 72 | 79 | 0.0 | 4.3 | 0.00 | 0.28 | 0.01 | 76 | 1009.0 |
| 20260904184607 | 71 | 176 | 0.0 | 0.0 | 0.00 | 0.28 | 0.01 | 82 | 1009.0 |
| 20260904183049 | 71 | 88 | 0.0 | 2.6 | 0.00 | 0.28 | 0.01 | 77 | 1008.8 |
| 20260904181549 | 72 | 135 | 0.9 | 5.2 | 0.00 | 0.28 | 0.01 | 75 | 1009.0 |
| 20260904180047 | 72 | 18 | 2.6 | 5.2 | 0.00 | 0.28 | 0.01 | 74 | 1009.1 |
| 20260904174612 | 73 | 242 | 0.0 | 4.3 | 0.00 | 0.28 | 0.01 | 73 | 1009.0 |
| 20260904173047 | 73 | 265 | 0.9 | 3.5 | 0.00 | 0.28 | 0.01 | 73 | 1009.1 |
| 20260904171541 | 73 | 270 | 0.0 | 6.1 | 0.01 | 0.28 | 0.01 | 72 | 1009.3 |
| 20260904170047 | 72 | 291 | 1.7 | 6.1 | 0.01 | 0.28 | 0.01 | 71 | 1009.4 |
| 20260904164537 | 69 | 36 | 0.9 | 3.5 | 0.01 | 0.28 | 0.01 | 86 | 1009.4 |
| 20260904163049 | 69 | 15 | 0.0 | 2.6 | 0.01 | 0.28 | 0.01 | 87 | 1009.4 |
| 20260904161536 | 71 | 210 | 0.0 | 0.0 | 0.00 | 0.28 | 0.00 | 87 | 1009.4 |
| 20260904160034 | 71 | 210 | 0.0 | 0.9 | 0.00 | 0.28 | 0.00 | 85 | 1009.6 |
| 20260904154532 | 72 | 327 | 0.9 | 3.5 | 0.00 | 0.28 | 0.00 | 79 | 1009.8 |
| 20260904153029 | 72 | 275 | 0.0 | 0.9 | 0.00 | 0.28 | 0.00 | 85 | 1009.8 |
| 20260904151528 | 71 | 105 | 0.0 | 2.6 | 0.00 | 0.28 | 0.00 | 85 | 1009.9 |
| 20260904150033 | 70 | 210 | 0.0 | 2.6 | 0.00 | 0.28 | 0.00 | 88 | 1010.0 |
| 20260904144517 | 69 | 264 | 0.0 | 1.7 | 0.00 | 0.28 | 0.00 | 89 | 1010.0 |
| 20260904143016 | 68 | 41 | 0.0 | 3.5 | 0.00 | 0.28 | 0.00 | 93 | 1010.1 |
| 20260904141510 | 66 | 179 | 0.0 | 0.0 | 0.00 | 0.28 | 0.00 | 94 | 1010.3 |
| 20260904140007 | 65 | 174 | 0.0 | 0.0 | 0.00 | 0.28 | 0.00 | 95 | 1010.2 |
| 20260904134502 | 65 | 174 | 0.0 | 0.0 | 0.00 | 0.28 | 0.00 | 95 | 1010.1 |
| 20260904133004 | 64 | 127 | 0.0 | 0.0 | 0.00 | 0.28 | 0.00 | 95 | 1010.2 |
| 20260904131559 | 64 | 127 | 0.0 | 0.0 | 0.00 | 0.28 | 0.00 | 95 | 1010.3 |
| 20260904130003 | 63 | 101 | 0.0 | 1.7 | 0.00 | 0.28 | 0.00 | 95 | 1010.3 |
| 20260904124542 | 62 | 265 | 0.0 | 0.0 | 0.00 | 0.28 | 0.00 | 95 | 1010.3 |
| 20260904123039 | 61 | 103 | 0.0 | 1.7 | 0.00 | 0.28 | 0.00 | 96 | 1010.2 |
| 20260904121536 | 60 | 89 | 0.0 | 0.9 | 0.00 | 0.28 | 0.00 | 96 | 1010.2 |